Home > Time Zones > World Clock > Weather > Iran > Ahvaz > Past weeks

Flag for Iran Weather past 2 weeks in Ahvaz, Iran

Now
93 °F

Passing clouds.


Feels Like: 90 °F
Forecast: 84 / 109 °F
Wind: No wind

Location: Ahwaz

Current Time: Sep 1, 2015 at 8:27:31 AM

Latest Report: Sep 1, 2015 at 8:00 AM


Visibility: 2 mi

Pressure: 29.59 "Hg

Humidity: 21%

Dew point: 48 °F

Location of AhvazLocation

Historic Weather in Ahvaz — Graph

°F

Ahvaz temperature yesterday

Maximum temperature yesterday: 118 °F (at 2:30 PM)
Minimum temperature yesterday: 86 °F (at 7:30 AM)
Average temperature yesterday: 105 °F

Past Weeks' High & Low Weather Summary

 TemperatureHumidityPressure
High118 °F (Aug 20, 4:00 PM)89% (Aug 19, 7:30 AM)29.65 "Hg (Aug 19, 7:30 AM)
Low82 °F (Aug 26, 7:30 AM)10% (Aug 27, 4:00 PM)29.45 "Hg (Aug 17, 7:30 PM)
Average104 °F32%29.53 "Hg
* Reported Aug 17 6:30 AM — Sep 1 6:30 AM, Ahvaz, Weather by CustomWeather, © 2015

Note: Actual official high and low records may vary slightly from our data, if they occured in-between our weather recording intervals... More about our weather records

Advertising

Ahvaz weather history for previous 24 hours

 ConditionsComfort  
Time TempWeatherWind HumidityBarometerVisibility
6:30 AM
Tue, Sep 1
95 °FPassing clouds.5 mph20%29.56 "Hg2 mi
5:30 AM95 °FPassing clouds.7 mph22%29.53 "Hg2 mi
4:30 AM97 °FClear.7 mph20%29.53 "Hg4 mi
3:30 AM97 °FClear.7 mph22%29.56 "Hg4 mi
2:30 AM97 °FClear.7 mph28%29.56 "Hg4 mi
1:30 AM95 °FHaze.No wind41%29.56 "Hg3 mi
1:00 AM99 °FClear.5 mph27%29.56 "Hg4 mi
12:30 AM97 °FClear.2 mph34%29.56 "Hg4 mi
12:00 AM95 °FClear.2 mph32%29.56 "Hg3 mi
11:30 PM
Mon, Aug 31
97 °FClear.2 mph37%29.56 "Hg4 mi
11:00 PM102 °FClear.No wind26%29.56 "Hg4 mi
10:30 PM102 °FPassing clouds.5 mph26%29.56 "HgN/A
10:00 PM100 °FPassing clouds.No wind35%29.56 "HgN/A
9:30 PM100 °FPassing clouds.No wind35%29.56 "HgN/A
9:00 PM100 °FScattered clouds.No wind29%29.53 "HgN/A
8:30 PM104 °FScattered clouds.5 mph28%29.53 "HgN/A
8:00 PM102 °FScattered clouds.No wind27%29.53 "HgN/A
7:30 PM106 °FScattered clouds.No wind30%29.53 "HgN/A
7:00 PM109 °FScattered clouds.No wind18%29.53 "HgN/A
6:30 PM113 °FScattered clouds.No wind17%29.53 "HgN/A
6:00 PM113 °FScattered clouds.No wind19%29.56 "HgN/A
5:30 PM117 °FPartly sunny.No wind19%29.53 "HgN/A
5:00 PM115 °FPartly sunny.2 mph16%29.56 "HgN/A
4:30 PM117 °FPartly sunny.No wind16%29.56 "HgN/A
4:00 PM115 °FSunny.5 mph13%29.56 "Hg10 mi
3:30 PM117 °FSunny.5 mph13%29.56 "Hg10 mi
3:00 PM117 °FSunny.5 mph12%29.56 "Hg10 mi
2:30 PM118 °FClear.5 mph11%29.56 "Hg5 mi
2:00 PM117 °FSunny.7 mph13%29.56 "Hg10 mi
1:30 PM117 °FClear.7 mph12%29.56 "Hg4 mi
1:00 PM115 °FClear.7 mph13%29.59 "Hg5 mi
12:30 PM113 °FClear.7 mph14%29.59 "Hg5 mi
12:00 PM111 °FClear.7 mph18%29.59 "Hg4 mi
11:30 AM108 °FClear.5 mph22%29.62 "Hg4 mi
11:00 AM106 °FClear.5 mph19%29.62 "Hg4 mi
10:30 AM102 °FClear.5 mph21%29.62 "Hg4 mi
10:00 AM100 °FClear.12 mph25%29.62 "Hg4 mi
9:30 AM99 °FSunny.2 mph27%29.59 "Hg10 mi
9:00 AM95 °FSunny.2 mph32%29.59 "Hg10 mi
8:30 AM91 °FSunny.2 mph36%29.59 "Hg10 mi
8:00 AM90 °FClear.No wind33%29.56 "Hg10 mi
Weather by CustomWeather, © 2015

See weather overviewHow to use our weather pages